{"data":{"norad_id":67194,"epoch":"2026-05-25T00:09:41.027040Z","epoch_age_seconds":84900,"freshness":"FRESH","line1":"1 67194U 25304C   26145.00672485  .00003977  00000+0  34086-3 0  9990","line2":"2 67194  70.0021 342.1424 0002964 261.2348  98.8476 14.98337619 25310","mean_motion":14.98337619,"eccentricity":0.0002964,"inclination_deg":70.0021,"raan_deg":342.1424,"arg_perigee_deg":261.2348,"mean_anomaly_deg":98.8476,"bstar":0.00034086,"rev_number":2531,"period_min":96.106510424604,"perigee_km":569.97229972586,"apogee_km":574.09236010464,"semimajor_km":6950.1693299153,"source":"CELESTRAK","updated_at":"2026-05-25T13:38:21.486697Z"}}